Vorticity
nan nan nan nan nan nan nan nan nan nan nan nan nan nan nan nan nan nan nan nan nan nan nan nan nan nan nan nan nan nan nan nan nan nan nan nan nan nan nan nan nan nan nan nan nan nan nan nan nan nan nan nan nan nan nan nan nan nan nan nan nan nan nan nan nan nan nan nan nan nan nan nan nan nan nan nan nan nan nan nan nan nan nan nan nan nan
nan 10 15 17 10 4 11 18 11 5 4 5 7 9 11 10 8 11 16 15 11 8 8 12 16 20 23 24 26 22 17 15 13 10 8 8 7 7 6 6 6 6 6 6 6 6 6 7 7 6 6 7 7 7 7 7 7 7 6 6 6 7 8 9 10 9 8 8 7 6 4 3 3 3 3 4 4 4 5 5 6 6 6 7 7 nan
nan 9 13 16 12 6 9 16 14 11 7 5 7 11 12 8 5 7 12 15 14 11 10 12 16 21 23 25 30 25 18 14 11 9 8 8 7 7 7 6 6 6 6 6 7 7 7 7 8 8 8 8 8 8 8 7 7 6 7 7 7 7 7 7 7 7 8 8 7 6 5 4 4 4 5 5 6 6 6 7 7 7 7 7 7 nan
nan 11 11 13 14 10 8 12 15 15 12 10 11 13 12 8 7 9 12 13 13 12 14 14 14 16 19 25 30 29 20 12 10 8 8 8 8 7 7 6 6 6 7 7 7 7 8 8 9 9 10 10 10 10 10 9 8 7 7 7 9 10 9 7 7 7 7 7 7 6 6 5 5 5 6 7 7 7 8 7 7 7 7 7 7 nan
nan 12 11 11 12 13 12 11 14 15 15 14 14 14 12 10 10 12 14 15 14 12 14 16 14 12 14 23 31 30 20 11 9 7 8 8 7 7 6 6 6 6 7 7 7 8 8 9 9 10 10 11 11 11 11 11 10 9 8 9 11 14 13 11 9 9 9 9 8 7 6 6 6 7 7 7 7 7 7 6 6 6 6 7 7 nan
nan 12 12 11 11 12 12 11 14 15 14 14 14 13 12 12 12 13 14 15 14 13 13 15 16 14 14 23 30 28 18 11 8 8 8 8 7 7 6 6 6 7 7 7 7 8 8 8 9 9 10 10 11 11 11 11 12 11 11 11 13 17 18 17 14 12 11 10 8 7 7 7 7 8 8 8 7 7 6 6 5 5 5 6 7 nan
nan 12 12 11 10 10 10 11 14 15 13 12 12 11 12 13 14 14 13 13 13 13 13 14 15 15 16 23 26 22 14 9 7 7 7 7 6 6 6 7 7 7 7 7 7 7 7 7 8 8 8 9 9 9 10 10 11 12 12 13 16 20 23 21 17 13 11 9 8 7 7 7 7 8 8 8 8 7 7 6 6 6 5 6 6 nan
nan 10 10 10 8 8 8 11 13 14 13 11 10 9 9 11 13 13 13 12 13 12 12 12 13 13 16 21 19 14 8 6 5 5 7 7 6 6 7 7 7 7 7 7 7 7 7 7 7 7 7 7 8 8 8 9 10 11 12 14 17 21 24 22 18 14 10 8 7 7 7 7 8 8 8 8 8 8 8 8 8 7 6 6 6 nan
nan 8 8 9 9 8 7 8 10 12 14 13 11 9 8 8 9 10 10 11 12 13 13 11 11 12 14 16 15 12 8 6 7 8 9 10 12 13 12 9 7 6 7 7 7 6 6 6 6 6 6 6 7 6 6 7 9 10 12 13 15 18 20 19 16 12 9 7 6 6 7 7 7 8 8 8 8 8 9 9 9 9 8 7 6 nan
nan 10 8 7 9 10 10 8 8 10 14 16 14 12 11 9 8 7 6 7 9 13 15 13 11 10 12 13 13 13 12 13 14 14 12 14 17 16 13 10 10 12 11 8 7 6 6 6 6 6 5 5 5 5 5 7 8 10 11 12 13 14 15 14 13 11 9 8 7 7 6 7 7 7 7 7 7 8 9 9 10 10 10 9 8 nan
nan 12 9 6 7 11 13 11 9 10 13 14 13 12 12 12 11 10 6 5 7 11 12 10 10 11 12 12 13 12 11 12 15 16 14 12 13 11 8 9 12 16 13 9 8 7 7 6 6 5 5 4 4 4 4 6 8 9 10 11 11 11 11 11 10 10 9 9 8 7 6 6 6 6 6 6 6 7 7 8 9 10 11 11 10 nan
nan 12 11 8 7 8 10 10 11 13 12 10 9 9 10 12 12 13 10 8 7 7 5 5 7 11 14 14 13 11 10 10 11 12 12 9 7 4 4 7 11 12 9 8 7 8 8 6 5 4 4 5 5 4 5 6 8 9 10 10 10 10 9 9 9 9 9 8 8 7 7 6 6 6 6 5 5 5 5 6 7 9 10 11 11 nan
nan 11 11 9 8 7 7 8 10 12 11 10 8 8 9 10 11 12 13 11 8 7 5 5 6 7 11 14 15 13 11 9 10 10 10 8 6 5 5 7 7 7 7 7 9 13 13 6 3 3 5 6 7 6 5 7 9 9 9 9 9 9 9 9 9 9 8 8 7 7 7 6 6 6 5 4 4 3 4 5 5 6 8 10 11 nan
nan 11 10 8 8 8 8 8 9 9 8 8 9 9 11 12 12 11 12 12 9 9 9 8 5 6 7 10 13 16 14 9 9 9 10 9 9 10 10 9 8 8 8 9 12 17 13 5 4 8 9 6 6 6 6 7 8 8 8 8 8 8 9 9 9 8 8 8 7 7 7 6 6 5 4 4 3 3 3 4 5 5 7 8 10 nan
nan 10 8 7 8 9 9 9 9 8 7 8 10 10 12 13 12 10 10 9 7 8 9 7 5 6 8 7 9 17 15 9 8 8 8 6 9 12 13 11 9 9 10 11 12 15 10 5 7 11 12 10 9 9 9 9 10 8 7 7 7 8 8 9 9 8 8 7 7 7 6 6 5 5 4 4 3 3 3 4 4 5 6 7 8 nan
nan 10 8 7 7 8 10 10 9 9 9 10 11 12 11 11 10 9 8 7 6 7 7 5 3 3 6 9 11 16 15 10 9 9 7 4 7 12 14 12 9 9 10 10 10 10 9 9 11 13 16 18 15 12 10 10 10 8 6 6 6 7 7 8 9 9 9 8 7 7 6 6 5 5 4 4 3 3 3 4 5 5 6 6 7 nan
nan 9 9 8 8 8 10 11 10 10 11 11 11 11 11 11 10 9 8 6 7 8 9 7 4 3 4 7 11 15 14 12 11 10 5 3 3 7 14 16 11 9 8 9 9 9 10 10 11 12 19 22 17 11 9 9 9 8 6 6 6 6 7 8 8 9 9 8 8 7 6 6 6 6 5 4 4 4 4 5 5 6 5 5 6 nan
nan 9 9 8 9 9 11 11 10 10 10 11 10 10 11 11 11 10 9 8 8 9 10 8 5 6 7 9 11 12 13 13 11 9 6 3 1 4 13 18 15 11 9 8 8 9 10 11 12 14 24 25 15 10 9 9 9 8 7 7 7 7 7 8 8 8 8 8 8 7 7 6 6 6 6 5 5 4 5 5 6 6 5 5 5 nan
nan 9 8 8 9 10 11 11 10 9 9 10 11 11 10 10 10 9 9 10 10 10 9 7 7 7 8 12 13 13 13 13 11 9 6 2 0 3 12 18 15 12 9 9 8 9 10 13 18 21 24 19 13 10 9 9 9 9 8 7 7 8 8 8 8 8 8 8 8 8 7 7 7 7 6 6 5 5 6 6 6 6 6 5 6 nan
nan 9 6 7 10 11 11 12 11 10 9 10 10 10 10 11 10 9 10 11 9 7 7 8 9 9 9 11 13 13 13 11 9 9 7 4 2 3 12 17 13 10 8 7 7 9 11 13 17 22 20 14 12 10 9 9 9 9 9 8 8 8 9 9 9 9 9 9 8 8 8 7 8 7 7 7 6 6 6 7 7 7 6 7 9 nan
nan 10 8 7 8 9 11 14 14 13 12 11 9 8 9 10 10 10 11 11 10 9 8 8 8 8 11 14 14 13 11 8 6 5 5 6 5 5 11 15 14 11 7 5 6 9 11 11 12 19 22 18 13 10 9 9 9 9 9 9 9 9 9 9 9 9 9 9 9 8 8 8 8 8 8 7 7 7 7 7 7 7 7 9 12 nan
nan 11 13 10 7 7 12 17 18 15 13 9 6 7 10 10 10 10 11 11 11 11 9 7 7 9 15 17 16 14 9 5 5 4 7 9 7 6 8 13 14 12 7 5 6 8 10 11 12 19 24 21 13 10 9 9 9 9 9 9 9 9 9 9 9 9 9 9 9 9 8 8 8 8 8 8 8 8 7 7 7 7 7 11 17 nan
nan 9 14 13 10 9 13 16 17 16 13 10 7 6 10 14 13 13 11 10 10 9 9 10 12 14 16 18 16 13 8 6 8 8 11 11 9 5 6 11 13 11 8 7 8 9 10 10 11 17 26 24 12 9 8 8 8 8 8 8 8 8 9 9 9 9 9 9 9 9 9 9 8 8 8 8 8 8 8 8 7 7 8 12 18 nan
nan 9 12 13 12 10 13 15 15 14 12 10 10 10 13 16 17 17 15 14 13 12 10 11 12 12 13 14 12 10 7 7 9 9 11 12 11 9 9 11 12 10 8 8 10 10 9 7 8 11 25 29 16 10 8 7 8 8 8 8 8 8 8 9 9 9 10 10 10 10 10 9 9 9 9 9 9 9 8 8 7 6 7 12 17 nan
nan 10 12 15 16 13 12 15 16 14 11 9 9 9 11 14 15 15 15 16 15 14 12 9 8 7 9 10 8 7 7 7 9 10 10 11 12 12 11 11 10 9 8 8 10 11 10 7 6 7 18 27 24 15 8 7 7 7 7 7 8 8 8 8 9 9 10 10 10 11 10 10 10 9 9 9 9 9 9 8 7 6 6 10 14 nan
nan 11 15 19 20 18 15 16 17 15 9 5 6 8 9 9 9 9 11 12 12 11 9 6 5 5 9 10 10 9 7 6 9 12 12 12 13 11 9 9 10 10 9 8 11 12 11 8 6 6 11 20 25 21 12 8 7 7 7 7 8 8 8 8 9 9 10 11 11 11 10 10 10 9 9 9 9 9 9 8 6 5 5 7 10 nan
nan 13 17 20 19 17 16 17 17 15 8 4 6 6 5 4 6 7 8 10 10 9 6 4 4 6 9 12 12 11 9 6 7 10 13 15 13 11 10 9 10 10 9 9 12 13 11 8 8 7 6 9 17 27 23 12 9 8 7 7 8 8 8 9 9 9 10 10 11 11 10 9 9 9 9 9 9 9 9 8 5 3 2 3 6 nan
nan 16 18 18 17 16 15 15 14 11 7 7 5 -2 -6 -1 4 6 7 9 9 8 7 7 6 7 10 11 10 11 10 7 6 8 12 14 12 12 11 10 9 9 7 8 10 11 9 8 9 9 6 6 9 19 25 22 18 13 8 7 7 8 8 9 9 9 10 11 11 10 10 9 8 8 8 8 8 8 9 8 4 -0 -2 0 5 nan
nan 19 18 17 16 14 12 10 11 11 8 5 -1 -11 -14 -5 4 8 9 8 8 7 8 8 8 8 10 10 9 11 11 9 8 9 10 10 11 12 13 10 8 8 6 6 6 6 7 9 10 10 10 7 6 8 15 22 25 23 18 13 9 8 9 9 9 9 10 11 10 10 9 8 8 8 8 7 7 8 8 7 2 -3 -3 3 7 nan
nan 18 18 18 15 12 8 8 12 15 12 3 -5 -14 -14 -4 5 10 12 9 7 6 6 7 8 8 8 8 8 10 11 11 10 9 8 7 9 12 13 11 9 7 4 4 4 6 8 10 10 11 12 9 6 4 7 11 16 22 27 25 18 14 12 10 9 10 11 11 10 10 9 8 8 8 8 7 7 7 6 4 -0 -2 2 7 8 nan
nan 14 15 15 13 11 9 10 14 18 16 5 -5 -11 -8 0 7 11 12 9 7 6 5 6 8 8 6 5 6 8 12 15 13 9 6 6 9 14 13 9 8 7 4 4 6 7 10 10 10 10 11 9 7 6 6 7 8 12 19 25 25 25 19 12 10 11 13 13 11 10 8 8 8 8 8 8 7 6 4 1 -1 1 5 8 8 nan
nan 11 12 12 11 10 10 11 13 15 14 7 1 -1 1 5 9 11 11 9 7 7 7 7 8 8 6 4 5 7 13 18 18 11 3 3 8 15 14 10 9 7 5 6 10 12 12 12 12 12 11 9 8 8 7 6 6 8 13 17 21 28 24 14 11 12 16 18 15 11 9 8 8 8 9 8 7 6 3 0 -1 0 5 8 8 nan
nan 10 12 12 11 10 11 12 12 12 11 9 7 6 7 9 10 10 9 9 9 9 9 9 9 8 6 4 4 6 13 21 23 16 1 -2 7 14 15 12 10 7 4 4 9 14 15 15 14 14 12 11 9 9 8 7 7 7 11 14 16 22 21 14 11 12 17 20 19 18 14 11 10 9 9 9 7 6 4 1 0 -0 3 6 8 nan
nan 11 11 11 10 10 11 12 11 11 10 10 10 8 7 9 11 11 9 9 9 10 10 11 10 10 6 2 3 4 11 23 27 18 -1 -5 6 14 16 12 10 7 4 1 4 9 14 16 15 14 14 13 11 9 9 9 8 7 9 12 13 16 16 13 11 13 15 15 16 20 19 17 18 14 11 10 9 7 5 2 1 2 1 3 6 nan
nan 11 10 10 10 11 11 11 10 10 10 10 11 10 8 8 10 11 10 9 9 9 10 12 12 12 8 4 4 4 11 24 28 16 -1 -6 3 11 15 13 11 9 6 2 2 4 11 15 15 12 12 12 11 10 9 10 9 8 8 10 11 12 14 13 13 13 13 11 11 13 16 18 20 20 18 17 14 11 7 4 2 2 2 2 2 nan
nan 11 10 10 10 11 11 10 10 10 9 9 11 12 10 9 10 11 11 10 10 10 11 11 13 13 13 11 10 10 15 24 25 15 -0 -5 2 7 12 15 14 11 7 5 4 4 8 13 15 13 9 8 9 10 10 9 8 8 8 10 10 11 13 14 14 14 12 11 10 10 12 15 17 18 24 25 18 14 10 6 3 1 1 1 1 nan
nan 10 9 10 10 11 11 9 9 9 8 8 11 13 12 11 12 12 12 13 13 13 12 12 12 13 15 18 20 21 23 24 23 17 4 -3 1 4 9 16 17 11 7 7 6 5 6 10 12 10 7 7 8 10 11 9 7 7 8 9 10 10 12 14 15 13 12 11 10 10 12 14 15 16 23 26 19 15 13 9 5 3 2 2 1 nan
nan 9 10 9 9 9 10 10 9 10 10 10 12 13 13 13 14 13 13 13 13 13 12 11 11 13 16 22 26 27 27 25 21 16 5 -2 1 4 9 15 17 13 9 9 8 7 5 7 8 7 6 8 11 13 14 11 9 8 9 9 8 9 10 13 13 12 11 11 10 11 11 12 12 14 17 18 16 13 13 16 16 12 7 5 5 nan
nan 9 9 9 8 8 9 10 10 10 11 13 14 14 13 13 12 11 12 13 12 12 13 12 11 11 15 21 23 24 22 19 15 12 6 1 1 5 10 14 15 13 10 10 10 10 7 5 6 7 7 8 11 13 15 14 12 10 9 7 7 8 10 13 13 12 11 10 10 9 9 10 12 12 12 13 14 13 12 15 18 16 9 9 14 nan
nan 8 10 9 8 8 9 10 11 12 13 13 13 12 11 9 7 6 8 11 11 10 10 11 10 10 12 16 18 20 17 15 14 10 6 4 5 7 11 14 14 13 11 10 12 12 8 6 8 10 8 8 10 12 13 14 13 13 7 2 7 12 13 11 11 11 11 11 10 8 8 10 12 12 11 12 12 12 11 13 15 15 11 8 13 nan
nan 8 9 11 11 11 11 13 15 15 13 11 8 7 8 7 6 5 6 7 8 8 6 5 5 6 7 9 12 17 20 20 16 10 8 9 9 7 10 13 13 13 11 10 11 12 10 9 10 9 8 10 12 12 13 17 17 13 2 -1 5 13 17 12 9 9 11 11 11 11 10 11 11 11 10 9 8 10 13 13 14 15 11 9 11 nan
nan 7 8 11 12 12 14 17 17 15 12 9 8 8 8 7 7 7 8 7 7 8 7 6 5 4 4 4 5 7 13 20 22 20 15 10 8 7 9 12 12 13 12 11 11 12 12 11 10 9 10 10 9 9 14 20 19 14 3 1 6 9 12 11 8 10 11 10 10 12 10 8 10 11 9 6 5 9 13 16 16 13 8 7 10 nan
nan 9 11 13 14 14 15 13 11 10 9 9 9 9 9 9 10 10 8 7 9 9 8 8 8 7 5 4 4 4 5 11 19 26 24 15 11 9 10 12 12 11 10 10 10 11 12 11 10 11 13 12 10 10 13 15 15 13 10 8 5 2 5 12 12 12 11 11 10 10 8 9 10 11 10 7 7 9 14 18 17 13 7 6 8 nan
nan 11 13 13 13 12 11 10 10 10 10 9 9 9 10 13 12 9 7 9 10 9 7 7 8 8 7 6 5 5 6 8 12 19 25 23 16 13 13 13 11 10 9 8 8 9 10 10 10 12 14 13 12 11 12 13 13 12 13 12 8 3 5 13 15 10 8 10 10 10 10 10 10 9 8 7 7 9 11 12 13 13 12 11 11 nan
nan 12 12 12 12 11 10 11 10 11 10 10 10 10 11 12 9 8 9 11 10 9 8 8 7 6 7 7 6 6 7 8 9 11 17 23 21 16 13 12 11 11 9 7 8 9 8 9 10 12 14 14 14 13 12 12 12 13 13 10 7 4 9 17 18 12 8 9 9 10 11 10 9 7 7 7 6 6 9 11 11 10 11 12 13 nan
nan 12 11 11 12 13 11 9 9 9 10 10 10 10 12 11 9 11 11 9 9 9 9 8 7 7 8 8 8 7 7 7 7 8 10 13 16 18 17 14 14 13 13 13 13 12 10 10 12 11 9 10 12 14 14 12 11 12 13 11 6 4 9 15 16 15 11 8 9 11 12 9 7 7 7 7 5 4 6 9 10 9 9 10 11 nan
nan 11 9 9 11 11 11 10 10 10 10 9 9 9 11 11 10 10 11 10 9 9 10 8 9 10 11 9 9 9 9 8 7 6 8 10 12 13 13 13 13 14 16 18 19 18 17 16 15 10 7 7 9 11 13 14 13 12 12 11 8 5 6 11 14 14 11 9 11 12 12 8 6 7 9 8 7 5 5 7 8 9 10 11 12 nan
nan 9 9 9 10 10 10 10 11 11 9 8 9 10 12 14 12 8 9 11 9 9 9 8 9 9 10 11 11 12 12 9 8 7 7 7 8 8 8 9 8 9 12 14 16 17 19 19 18 14 10 7 8 11 12 12 13 12 12 11 9 7 7 11 13 13 11 12 13 13 9 6 6 8 9 8 7 6 7 7 7 8 10 11 12 nan
nan 10 9 9 9 9 10 10 11 11 9 8 8 9 13 17 14 5 5 11 9 9 9 10 8 7 9 11 12 13 11 8 8 9 8 7 8 8 8 8 8 7 7 7 8 9 11 12 13 13 15 15 13 14 13 11 11 11 12 12 10 8 8 10 12 13 12 13 14 12 7 5 7 10 13 11 9 7 8 7 6 7 9 11 11 nan
nan 11 11 10 10 10 10 11 11 10 10 9 8 8 11 12 11 9 9 11 11 10 11 10 9 8 9 11 11 11 9 8 9 9 8 8 9 9 9 8 8 7 5 5 6 7 6 5 6 8 12 17 19 18 15 11 9 10 11 12 11 10 10 10 12 13 13 12 12 12 8 5 7 10 12 12 10 9 8 8 7 6 8 11 11 nan
nan nan nan nan nan nan nan nan nan nan nan nan nan nan nan nan nan nan nan nan nan nan nan nan nan nan nan nan nan nan nan nan nan nan nan nan nan nan nan nan nan nan nan nan nan nan nan nan nan nan nan nan nan nan nan nan nan nan nan nan nan nan nan nan nan nan nan nan nan nan nan nan nan nan nan nan nan nan nan nan nan nan nan nan nan nan
CAPE
nan nan nan nan nan nan nan nan nan nan nan nan nan nan nan nan nan nan nan nan nan nan nan nan nan nan nan nan nan nan nan nan nan nan nan nan nan nan nan nan nan nan nan nan nan nan nan nan nan nan nan nan nan nan nan 3 3 4 11 23 23 28 33 24 24 15 3 4 0 0 nan nan nan nan nan nan nan nan nan nan nan nan nan nan nan nan
nan nan nan nan nan nan nan nan nan nan nan nan nan nan nan nan nan nan nan nan nan nan nan nan nan nan nan nan nan nan nan nan nan nan nan nan nan nan nan nan nan nan nan nan nan nan nan nan nan nan nan nan nan nan nan 2 2 4 9 18 18 23 26 20 20 13 6 2 0 0 nan nan nan nan nan nan nan nan nan nan nan nan nan nan nan nan
nan nan nan nan nan nan nan nan nan nan nan nan nan nan nan nan nan nan nan nan nan nan nan nan nan nan nan nan nan nan nan nan nan nan nan nan nan nan nan nan nan nan nan nan nan nan nan nan nan nan nan nan nan nan nan nan nan 3 4 8 8 13 17 16 16 8 6 3 0 0 nan nan nan nan nan nan nan nan nan nan nan nan nan nan nan nan
nan nan nan nan nan nan nan nan nan nan nan nan nan nan nan nan nan nan nan nan nan nan nan nan nan nan nan nan nan nan nan nan nan nan nan nan nan nan nan nan nan nan nan nan nan nan nan nan nan nan nan nan nan nan nan nan nan nan 0 1 1 4 6 4 4 4 4 1 nan nan nan nan nan nan nan nan nan nan nan nan nan nan nan nan nan nan
nan nan nan nan nan nan nan nan nan nan nan nan nan nan nan nan nan nan nan nan nan nan nan nan nan nan nan nan nan nan nan nan nan nan nan nan nan nan nan nan nan nan nan nan nan nan nan nan nan nan nan nan nan nan nan nan nan nan nan nan nan nan 1 1 1 1 0 nan nan nan nan nan nan nan nan nan nan nan nan nan nan nan nan nan nan nan
nan nan nan nan nan nan nan nan nan nan nan nan nan nan nan nan nan nan nan nan nan nan nan nan nan nan nan nan nan nan nan nan nan nan nan nan nan nan nan 0 0 nan nan nan nan nan nan nan nan nan nan nan nan nan nan nan nan nan nan nan nan nan nan nan nan nan nan nan nan nan nan nan nan nan nan nan nan nan nan nan nan nan nan nan nan nan
nan nan nan nan nan nan nan nan nan nan nan nan nan nan nan nan nan nan nan nan nan nan nan nan nan nan nan nan nan nan nan nan nan nan nan nan nan nan nan 0 0 0 nan nan nan nan nan nan nan nan nan nan nan nan nan nan nan nan nan nan nan nan nan nan nan nan nan nan nan nan nan nan nan nan nan nan nan nan nan nan nan nan nan nan nan nan
nan nan nan nan nan nan nan nan nan nan nan nan nan nan nan nan nan nan nan nan nan nan nan nan nan nan nan nan nan nan nan nan nan nan nan nan nan nan nan 0 0 nan nan nan nan nan nan nan nan nan nan nan nan nan nan nan nan nan nan nan nan nan nan nan nan nan nan nan nan nan nan nan nan nan nan nan nan nan nan nan nan nan nan nan nan nan
nan nan nan nan nan nan nan nan nan nan nan nan nan nan nan nan nan nan nan nan nan nan nan nan nan nan nan nan nan nan nan nan nan nan nan nan nan nan 1 1 1 0 nan nan nan nan nan nan nan nan nan nan nan nan nan nan nan nan nan nan nan nan nan nan nan nan nan nan nan nan nan nan nan nan nan nan nan nan nan nan nan nan nan nan nan nan
nan nan nan nan nan nan nan nan nan nan nan nan nan nan nan nan nan nan nan nan nan nan nan nan nan nan nan nan nan nan nan nan nan nan nan nan nan nan nan nan nan 0 nan nan nan nan nan nan nan nan nan nan nan nan nan nan nan nan nan nan nan nan nan nan nan nan nan nan nan nan nan nan nan nan nan nan nan nan nan nan nan nan nan nan nan nan
nan nan nan nan nan nan nan nan nan nan nan nan nan nan nan nan nan nan nan nan nan nan nan nan nan nan nan nan nan nan nan nan nan nan nan nan nan nan nan nan nan nan nan nan nan nan nan nan nan nan nan nan nan nan nan nan nan nan nan nan nan nan nan 0 0 nan nan nan nan nan nan nan nan nan nan nan nan nan nan nan nan nan nan nan nan nan
nan nan nan nan nan nan nan nan nan nan nan nan nan nan nan nan nan nan nan nan nan nan nan nan nan nan nan nan nan nan nan nan nan nan nan nan nan nan nan nan nan nan 1 0 0 nan nan nan nan nan nan nan nan nan nan nan nan nan nan nan nan nan nan nan nan 0 nan nan nan nan nan nan nan nan nan nan nan nan nan nan nan nan nan nan nan nan
nan nan nan nan nan nan nan nan nan nan nan nan nan nan nan nan nan nan nan nan nan nan nan nan nan nan nan nan nan nan nan nan nan nan nan nan nan nan nan nan nan nan nan nan nan nan nan nan nan nan nan nan nan nan nan nan nan nan nan nan nan nan nan nan nan nan nan nan nan nan nan nan nan nan nan nan nan nan nan nan nan nan nan nan nan nan
nan nan nan nan nan nan nan nan nan nan nan nan nan nan nan nan nan nan nan nan nan nan nan nan nan nan nan nan nan nan nan nan nan nan nan nan nan nan nan nan nan nan nan nan nan nan nan nan nan nan nan nan nan nan nan nan nan nan nan nan nan nan nan nan nan nan nan nan nan nan nan nan nan nan nan nan nan nan nan nan nan nan nan nan nan nan
nan nan nan nan nan nan nan nan nan nan nan nan nan nan nan nan nan nan nan nan nan nan nan nan nan nan nan nan nan nan nan nan nan nan nan nan nan nan nan nan nan nan nan nan nan nan nan nan nan nan nan nan nan nan nan nan nan nan nan nan nan nan nan nan nan nan nan nan nan nan nan nan nan nan nan nan nan nan nan nan nan nan nan nan nan nan
nan nan nan nan nan nan nan nan nan nan nan nan nan nan nan nan nan nan nan nan nan nan nan nan nan nan nan nan nan nan nan nan nan nan nan nan nan nan nan nan nan nan nan nan nan nan nan nan nan nan nan nan nan nan nan nan nan nan nan nan nan nan nan nan nan nan nan nan nan nan nan nan nan nan nan nan nan nan nan nan nan nan nan nan nan nan
nan nan nan nan nan nan nan nan nan nan nan nan nan nan nan nan nan nan nan nan nan nan nan nan nan nan nan nan nan nan nan nan nan nan nan nan nan nan nan nan nan nan nan nan nan nan nan nan nan nan nan nan nan nan nan nan nan nan nan nan nan nan nan nan nan nan nan nan nan nan nan nan nan nan nan nan nan nan nan nan nan nan nan nan nan nan
nan nan nan nan nan nan nan nan nan nan nan nan nan nan nan nan nan nan nan nan nan nan nan nan nan nan nan nan nan nan nan nan nan nan nan nan nan nan nan nan nan nan nan nan nan nan nan nan nan nan nan nan nan nan nan nan nan nan nan nan nan nan nan nan nan nan nan nan nan nan nan nan nan nan nan nan nan nan nan nan nan nan nan nan nan nan
nan nan nan nan nan nan nan nan nan nan nan nan nan nan nan nan nan nan nan nan nan nan nan nan nan nan nan nan nan nan nan nan nan nan nan nan nan nan nan nan nan nan nan nan nan nan nan nan nan nan nan nan nan nan nan nan nan nan nan nan nan nan nan nan nan nan nan nan nan nan nan nan nan nan nan nan nan nan nan nan nan nan nan nan nan nan
nan nan nan nan nan nan nan nan nan nan nan nan nan nan nan nan nan nan nan nan nan nan nan nan nan nan nan nan nan nan nan nan nan nan nan nan nan nan nan nan nan nan nan nan nan nan nan nan nan nan nan nan nan nan nan nan nan nan nan nan nan nan nan nan nan nan nan nan nan nan nan nan nan nan nan nan nan nan nan nan nan nan nan nan nan nan
nan nan nan nan nan nan nan nan nan nan nan nan nan nan nan nan nan nan nan nan nan nan nan nan nan nan nan nan nan nan nan nan nan nan nan nan nan nan nan nan nan nan nan nan nan nan nan nan nan nan nan nan nan nan nan nan nan nan nan nan nan nan nan nan nan nan nan nan nan nan nan nan nan nan nan nan nan nan nan nan nan 0 3 2 2 0
nan nan nan nan nan nan nan nan nan nan nan nan nan nan nan nan nan nan nan nan nan nan nan nan nan nan nan nan nan nan nan nan nan nan nan nan nan nan nan nan nan nan nan nan nan nan nan nan nan nan nan nan nan nan nan nan nan nan nan nan nan nan nan nan nan nan nan nan nan nan nan nan nan nan nan nan nan nan nan nan nan 3 7 5 5 7
nan nan nan nan nan nan nan nan nan nan nan nan nan nan nan nan nan nan nan nan nan nan nan nan nan nan nan nan nan nan nan nan nan nan nan nan nan nan nan nan nan nan nan nan nan nan nan nan nan nan nan nan nan nan nan nan nan nan nan nan nan nan nan nan nan nan nan nan nan nan nan nan nan nan nan nan nan nan nan 2 2 7 11 11 11 15
nan nan nan nan nan nan nan nan nan nan nan nan nan nan nan nan nan nan nan nan nan nan nan nan nan nan nan nan nan nan nan nan nan nan nan nan nan nan nan nan nan nan nan nan nan nan nan nan nan nan nan nan nan nan nan nan nan nan nan nan nan nan nan nan nan nan nan nan nan nan nan nan nan nan nan nan nan nan 0 7 7 12 14 14 14 17
nan nan nan nan nan nan nan nan nan nan nan nan nan nan nan nan nan nan nan nan nan nan nan nan nan nan nan nan nan nan nan nan nan nan nan nan nan nan nan nan nan nan nan nan nan nan nan nan nan nan nan nan nan nan nan nan nan nan nan nan nan nan nan nan nan nan nan nan nan nan nan nan nan nan nan nan 0 0 4 10 10 13 12 6 6 7
nan nan nan nan nan nan nan nan nan nan nan nan nan nan nan nan nan nan nan nan nan nan nan nan nan nan nan nan nan nan nan nan nan nan nan nan nan nan nan nan nan nan nan nan nan nan nan nan nan nan nan nan nan nan nan nan nan nan nan nan nan nan nan nan nan nan nan nan nan nan nan nan nan nan nan 0 2 2 7 14 14 15 7 1 1 1
nan nan nan nan nan nan nan nan nan nan nan nan nan nan nan nan nan nan nan nan nan nan nan nan nan nan nan nan nan nan nan nan nan nan nan nan nan nan nan nan nan nan nan nan nan nan nan nan nan nan nan nan nan nan nan nan nan 0 nan nan nan nan nan nan nan nan nan nan 0 0 nan 0 0 0 2 2 5 5 12 15 15 15 5 1 1 0
nan nan nan nan nan nan nan nan nan nan nan nan nan nan nan nan nan nan nan nan nan nan nan nan nan nan nan nan nan nan nan nan nan nan nan nan nan nan nan nan nan nan nan nan nan nan 0 nan nan nan nan nan nan nan nan 2 2 2 1 0 0 nan nan nan nan nan 0 0 1 1 2 2 2 2 3 4 8 8 14 17 17 11 nan nan nan nan
nan nan nan nan nan nan nan nan nan nan nan nan nan nan nan nan nan nan nan nan nan nan nan nan nan nan nan nan nan nan nan nan nan nan nan nan nan nan nan nan nan nan nan nan nan nan nan nan nan nan nan nan nan nan nan nan nan 6 6 3 3 1 nan nan nan nan 0 1 2 2 4 4 5 5 4 5 9 9 13 17 17 13 nan nan nan nan
nan nan nan nan nan nan nan nan nan nan nan nan nan nan nan nan nan nan nan nan nan nan nan nan nan nan nan nan nan nan nan nan nan nan nan nan nan nan nan nan nan nan nan nan nan nan nan nan nan nan nan nan nan nan nan nan nan nan 1 7 7 3 0 nan nan nan 0 3 5 5 5 6 6 6 6 7 10 10 11 13 13 nan nan nan nan nan
nan nan nan nan nan nan nan nan nan nan nan nan nan nan nan nan nan nan nan nan nan nan nan nan nan nan nan nan nan nan nan nan nan nan nan nan nan nan nan nan nan nan nan nan nan nan nan nan nan nan nan nan nan nan nan nan nan nan nan nan nan 6 3 0 0 nan 1 5 6 6 7 8 8 8 7 7 10 10 9 1 1 nan nan nan nan nan
nan nan nan nan nan nan nan nan nan nan nan nan nan nan nan nan nan nan nan nan nan nan nan nan nan nan nan nan nan nan nan nan nan nan nan nan nan nan nan nan nan nan nan nan nan nan nan nan nan nan nan nan nan nan nan nan nan nan nan nan nan nan 1 2 2 0 1 6 8 8 10 11 12 12 10 9 11 11 8 1 1 nan nan nan nan nan
nan nan nan nan nan nan nan nan nan nan nan nan nan nan nan nan nan nan nan nan nan nan nan nan nan nan nan nan nan nan nan nan nan nan nan nan nan nan nan nan nan nan nan nan nan nan nan nan nan nan nan nan nan nan nan nan nan nan nan nan nan nan nan nan nan nan 0 3 4 4 14 12 14 14 13 11 13 13 13 4 4 nan nan nan nan nan
nan nan nan nan nan nan nan nan nan nan nan nan nan nan nan nan nan nan nan nan nan nan nan nan nan nan nan nan nan nan nan nan nan nan nan nan nan nan nan nan nan nan nan nan nan nan nan nan nan nan nan nan nan nan nan nan nan nan nan nan nan nan nan nan nan nan nan nan nan nan nan 6 15 15 13 14 14 14 15 8 8 nan nan nan nan nan
nan nan nan nan nan nan nan nan nan nan nan nan nan nan nan nan nan nan nan nan nan nan nan nan nan nan nan nan nan nan nan nan nan nan nan nan nan nan nan nan nan nan nan nan nan nan nan nan nan nan nan nan nan nan nan nan nan nan nan nan nan nan nan nan nan nan nan nan nan nan nan nan 1 1 8 14 15 15 18 15 15 3 nan nan nan nan
nan nan nan nan nan nan nan nan nan nan nan nan nan nan nan nan nan nan nan nan nan nan nan nan nan nan nan nan nan nan nan nan nan nan nan nan nan nan nan nan nan nan nan nan nan nan nan nan nan nan nan nan nan nan nan nan nan nan nan nan nan nan nan nan nan nan nan nan nan nan nan nan nan nan 2 19 18 18 20 23 23 14 0 nan nan nan
nan nan nan nan nan nan nan nan nan nan nan nan nan nan nan nan nan nan nan nan nan nan nan nan nan nan nan nan nan nan nan nan nan nan nan nan nan nan nan nan nan nan nan nan nan nan nan nan nan nan nan nan nan nan nan nan nan nan nan nan nan nan nan nan nan nan nan nan nan nan nan nan nan nan 3 23 19 19 20 24 24 19 8 0 0 nan
nan nan nan nan nan nan nan nan nan nan nan nan nan nan nan nan nan nan nan nan nan nan nan nan nan nan nan nan nan nan nan nan nan nan nan nan nan nan nan nan nan nan nan nan nan nan nan nan nan nan nan nan nan nan nan nan nan nan nan nan nan nan nan nan nan nan nan nan nan nan nan nan nan nan nan 4 5 5 2 4 4 21 15 6 6 0
nan nan nan nan nan nan nan nan nan nan nan nan nan nan nan nan nan nan nan nan nan nan nan nan nan nan nan nan nan nan nan nan nan nan nan nan nan nan nan nan nan nan nan nan nan nan nan nan nan nan nan nan nan nan nan nan nan nan nan nan nan nan nan nan nan nan nan nan nan nan nan nan nan nan nan nan nan nan nan 0 0 8 4 0 0 0
nan nan nan nan nan nan nan nan nan nan nan nan nan nan nan nan nan nan nan nan nan nan nan nan nan nan nan nan nan nan nan nan nan nan nan nan nan nan nan nan nan nan nan nan nan nan nan nan nan nan nan nan nan nan nan nan nan nan nan nan nan nan nan nan nan nan nan nan nan nan nan nan nan nan nan nan nan nan nan nan nan nan 4 nan nan nan
nan nan nan nan nan nan nan nan nan nan nan nan nan nan nan nan nan nan nan nan nan nan nan nan nan nan nan nan nan nan nan nan nan nan nan nan nan nan nan nan nan nan nan nan nan nan nan nan nan nan nan nan nan nan nan nan nan nan nan nan nan nan nan nan nan nan nan nan nan nan nan nan nan nan nan nan nan nan nan nan nan nan nan nan nan nan
nan nan nan nan nan nan nan nan nan nan nan nan nan nan nan nan nan nan nan nan nan nan nan nan nan nan nan nan nan nan nan nan nan nan nan nan nan nan nan nan nan nan nan nan nan nan nan nan nan nan nan nan nan nan nan nan nan nan nan nan nan nan nan nan nan nan nan nan nan nan nan nan nan nan nan nan nan nan nan nan nan nan nan nan nan nan
nan nan nan nan nan nan nan nan nan nan nan nan nan nan nan nan nan nan nan nan nan nan nan nan nan nan nan nan nan nan nan nan nan nan nan nan nan nan nan nan nan nan nan nan nan nan nan nan nan nan nan nan nan nan nan nan nan nan nan nan nan nan nan nan nan nan nan nan nan nan nan nan nan nan nan nan nan nan nan nan nan nan nan nan nan nan
nan nan nan nan nan nan nan nan nan nan nan nan nan nan nan nan nan nan nan nan nan nan nan nan nan nan nan nan nan nan nan nan nan nan nan nan nan nan nan nan nan nan nan nan nan nan nan nan nan nan nan nan nan nan nan nan nan nan nan nan nan nan nan nan nan nan nan nan nan nan nan nan nan nan nan nan nan nan nan nan nan nan nan nan nan nan
nan nan nan nan nan nan nan nan nan nan nan nan nan nan nan nan nan nan nan nan nan nan nan nan nan nan nan nan nan nan nan nan nan nan nan nan nan nan nan nan nan nan nan nan nan nan nan nan nan nan nan nan nan nan nan nan nan nan nan nan nan nan nan nan nan nan nan nan nan nan nan nan nan nan nan nan nan nan nan nan nan nan nan nan nan nan
nan nan nan nan nan nan nan nan nan nan nan nan nan nan nan nan nan nan nan nan nan nan nan nan nan nan nan nan nan nan nan nan nan nan nan nan nan nan nan nan nan nan nan nan nan nan nan nan nan nan nan nan nan nan nan nan nan nan nan nan nan nan nan nan nan nan nan nan nan nan nan nan nan nan nan nan nan nan nan nan nan nan nan nan nan nan
nan nan nan nan nan nan nan nan nan nan nan nan nan nan nan nan nan nan nan nan nan nan nan nan nan nan nan nan nan nan nan nan nan nan nan nan nan nan nan nan nan nan nan nan nan nan nan nan nan nan nan nan nan nan nan nan nan nan nan nan nan nan nan nan nan nan nan nan nan nan nan nan nan nan nan nan nan nan nan nan nan nan nan nan nan nan
nan nan nan nan nan nan nan nan nan nan nan nan nan nan nan nan nan nan nan nan nan nan nan nan nan nan nan nan nan nan nan nan nan nan nan nan nan nan nan nan nan nan nan nan nan nan nan nan nan nan nan nan nan nan nan nan nan nan nan nan nan nan nan nan nan nan nan nan nan nan nan nan nan nan nan nan nan nan nan nan nan nan nan nan nan nan
nan nan nan nan nan nan nan nan nan nan nan nan nan nan nan nan nan nan nan nan nan nan nan nan nan nan nan nan nan nan nan nan nan nan nan nan nan nan nan nan nan nan nan nan nan nan nan nan nan nan nan nan nan nan nan nan nan nan nan nan nan nan nan nan nan nan nan nan nan nan nan nan nan nan nan nan nan nan nan nan nan nan nan nan nan nan
nan nan nan nan nan nan nan nan nan nan nan nan nan nan nan nan nan nan nan nan nan nan nan nan nan nan nan nan nan nan nan nan nan nan nan nan nan nan nan nan nan nan nan nan nan nan nan nan nan nan nan nan nan nan nan nan nan nan nan nan nan nan nan nan nan nan nan nan nan nan nan nan nan nan nan nan nan nan nan nan nan nan nan nan nan nan
nan nan nan nan nan nan nan nan nan nan nan nan nan nan nan nan nan nan nan nan nan nan nan nan nan nan nan nan nan nan nan nan nan nan nan nan nan nan nan nan nan nan nan nan nan nan nan nan nan nan nan nan nan nan nan nan nan nan nan nan nan nan nan nan nan nan nan nan nan nan nan nan nan nan nan nan nan nan nan nan nan nan nan nan nan nan